| time (UTC) | temp F | wind direction | speed knots | gust knots | rain 1hr in | rain 24hr in | rain mn in | humidity % | barometer mb |
| 20260503225218 | 71 | 226 | 1.7 | 1.7 | 0.00 | 0.00 | 0.00 | 57 | 1012.4 |
| 20260503224715 | 71 | 194 | 1.7 | 1.7 | 0.00 | 0.00 | 0.00 | 56 | 1012.3 |
| 20260503224213 | 70 | 208 | 2.6 | 2.6 | 0.00 | 0.00 | 0.00 | 58 | 1012.4 |
| 20260503223710 | 71 | 228 | 2.6 | 2.6 | 0.00 | 0.00 | 0.00 | 56 | 1012.5 |
| 20260503223208 | 72 | 163 | 0.9 | 1.7 | 0.00 | 0.00 | 0.00 | 55 | 1012.5 |
| 20260503222704 | 71 | 149 | 0.0 | 0.9 | 0.00 | 0.00 | 0.00 | 57 | 1012.8 |
| 20260503222202 | 70 | 227 | 2.6 | 2.6 | 0.00 | 0.00 | 0.00 | 57 | 1012.8 |
| 20260503221700 | 71 | 172 | 1.7 | 1.7 | 0.00 | 0.00 | 0.00 | 56 | 1012.7 |
| 20260503221157 | 71 | 211 | 2.6 | 2.6 | 0.00 | 0.00 | 0.00 | 58 | 1013.0 |
| 20260503220654 | 71 | 211 | 1.7 | 2.6 | 0.00 | 0.00 | 0.00 | 56 | 1012.9 |
| 20260503220150 | 71 | 198 | 1.7 | 1.7 | 0.00 | 0.00 | 0.00 | 57 | 1013.2 |
| 20260503215647 | 71 | 169 | 1.7 | 1.7 | 0.00 | 0.00 | 0.00 | 58 | 1013.1 |
| 20260503215143 | 71 | 122 | 0.0 | 0.0 | 0.00 | 0.00 | 0.00 | 59 | 1013.0 |
| 20260503214642 | 71 | 178 | 1.7 | 1.7 | 0.00 | 0.00 | 0.00 | 57 | 1013.4 |
| 20260503214138 | 71 | 169 | 0.9 | 1.7 | 0.00 | 0.00 | 0.00 | 58 | 1013.1 |
| 20260503213632 | 71 | 191 | 1.7 | 1.7 | 0.00 | 0.00 | 0.00 | 58 | 1013.3 |
| 20260503213128 | 71 | 197 | 1.7 | 1.7 | 0.00 | 0.00 | 0.00 | 58 | 1013.2 |
| 20260503212626 | 71 | 176 | 1.7 | 1.7 | 0.00 | 0.00 | 0.00 | 59 | 1013.3 |
| 20260503212123 | 71 | 142 | 0.9 | 0.9 | 0.00 | 0.00 | 0.00 | 59 | 1013.2 |
| 20260503211621 | 70 | 199 | 1.7 | 1.7 | 0.00 | 0.00 | 0.00 | 59 | 1013.4 |
| 20260503211115 | 69 | 222 | 1.7 | 2.6 | 0.00 | 0.00 | 0.00 | 61 | 1013.4 |
| 20260503210607 | 68 | 170 | 1.7 | 1.7 | 0.00 | 0.00 | 0.00 | 63 | 1013.4 |
| 20260503210103 | 68 | 136 | 0.9 | 1.7 | 0.00 | 0.00 | 0.00 | 61 | 1013.4 |
| 20260503205559 | 69 | 199 | 2.6 | 2.6 | 0.00 | 0.00 | 0.00 | 63 | 1013.6 |
| 20260503205055 | 69 | 228 | 2.6 | 2.6 | 0.00 | 0.00 | 0.00 | 64 | 1013.5 |
| 20260503204553 | 68 | 221 | 2.6 | 2.6 | 0.00 | 0.00 | 0.00 | 67 | 1013.7 |
| 20260503204050 | 69 | 235 | 2.6 | 2.6 | 0.00 | 0.00 | 0.00 | 64 | 1013.7 |
| 20260503203547 | 69 | 181 | 1.7 | 1.7 | 0.00 | 0.00 | 0.00 | 66 | 1013.7 |
| 20260503203044 | 68 | 203 | 1.7 | 2.6 | 0.00 | 0.00 | 0.00 | 66 | 1013.9 |
| 20260503202542 | 67 | 201 | 1.7 | 1.7 | 0.00 | 0.00 | 0.00 | 69 | 1013.9 |
| 20260503202039 | 68 | 221 | 2.6 | 2.6 | 0.00 | 0.00 | 0.00 | 68 | 1014.0 |
| 20260503201538 | 67 | 172 | 0.9 | 1.7 | 0.00 | 0.00 | 0.00 | 70 | 1014.0 |
| 20260503201035 | 67 | 183 | 1.7 | 1.7 | 0.00 | 0.00 | 0.00 | 70 | 1013.9 |
| 20260503200531 | 66 | 200 | 0.9 | 1.7 | 0.00 | 0.00 | 0.00 | 71 | 1014.1 |
| 20260503200027 | 67 | 211 | 1.7 | 1.7 | 0.00 | 0.00 | 0.00 | 69 | 1014.3 |
| 20260503195525 | 67 | 221 | 2.6 | 2.6 | 0.00 | 0.00 | 0.00 | 70 | 1014.4 |
| 20260503195021 | 67 | 170 | 1.7 | 1.7 | 0.00 | 0.00 | 0.00 | 71 | 1014.2 |
| 20260503194519 | 67 | 197 | 1.7 | 1.7 | 0.00 | 0.00 | 0.00 | 70 | 1014.3 |
| 20260503194018 | 65 | 216 | 1.7 | 1.7 | 0.00 | 0.00 | 0.00 | 71 | 1014.5 |
| 20260503193515 | 65 | 223 | 1.7 | 1.7 | 0.00 | 0.00 | 0.00 | 70 | 1014.6 |
| 20260503193010 | 64 | 218 | 2.6 | 2.6 | 0.00 | 0.00 | 0.00 | 73 | 1014.6 |
| 20260503192507 | 64 | 225 | 2.6 | 2.6 | 0.00 | 0.00 | 0.00 | 72 | 1014.6 |
| 20260503192003 | 66 | 220 | 2.6 | 2.6 | 0.00 | 0.00 | 0.00 | 71 | 1014.6 |
| 20260503191500 | 66 | 210 | 1.7 | 1.7 | 0.00 | 0.00 | 0.00 | 70 | 1014.7 |
| 20260503190956 | 65 | 167 | 0.9 | 0.9 | 0.00 | 0.00 | 0.00 | 71 | 1014.7 |
| 20260503190454 | 65 | 193 | 1.7 | 1.7 | 0.00 | 0.00 | 0.00 | 72 | 1014.9 |
| 20260503185951 | 65 | 207 | 2.6 | 2.6 | 0.00 | 0.00 | 0.00 | 74 | 1014.8 |
| 20260503185447 | 65 | 182 | 1.7 | 2.6 | 0.00 | 0.00 | 0.00 | 75 | 1014.9 |
| 20260503184946 | 65 | 183 | 1.7 | 1.7 | 0.00 | 0.00 | 0.00 | 75 | 1014.8 |
| 20260503184443 | 64 | 174 | 0.9 | 1.7 | 0.00 | 0.00 | 0.00 | 75 | 1014.8 |
| 20260503183939 | 64 | 224 | 1.7 | 2.6 | 0.00 | 0.00 | 0.00 | 76 | 1014.9 |
| 20260503183436 | 64 | 138 | 0.0 | 0.0 | 0.00 | 0.00 | 0.00 | 77 | 1015.1 |
| 20260503182933 | 64 | 240 | 2.6 | 4.3 | 0.00 | 0.00 | 0.00 | 75 | 1014.8 |
| 20260503182432 | 64 | 133 | 0.0 | 0.0 | 0.00 | 0.00 | 0.00 | 74 | 1015.1 |
| 20260503181929 | 64 | 170 | 0.9 | 1.7 | 0.00 | 0.00 | 0.00 | 75 | 1014.9 |
| 20260503181426 | 63 | 177 | 0.9 | 0.9 | 0.00 | 0.00 | 0.00 | 76 | 1015.2 |
| 20260503180922 | 63 | 153 | 0.9 | 0.9 | 0.00 | 0.00 | 0.00 | 76 | 1015.1 |
| 20260503180421 | 62 | 192 | 1.7 | 1.7 | 0.00 | 0.00 | 0.00 | 79 | 1015.2 |
| 20260503175916 | 62 | 177 | 0.9 | 0.9 | 0.00 | 0.00 | 0.00 | 78 | 1015.3 |
| 20260503175414 | 63 | 178 | 0.9 | 0.9 | 0.00 | 0.00 | 0.00 | 77 | 1015.4 |
| 20260503174909 | 63 | 176 | 0.9 | 0.9 | 0.00 | 0.00 | 0.00 | 76 | 1015.1 |
| 20260503174408 | 62 | 172 | 0.9 | 1.7 | 0.00 | 0.00 | 0.00 | 77 | 1015.2 |
| 20260503173903 | 61 | 180 | 0.0 | 0.0 | 0.00 | 0.00 | 0.00 | 80 | 1015.2 |
| 20260503173400 | 61 | 194 | 1.7 | 1.7 | 0.00 | 0.00 | 0.00 | 79 | 1015.2 |
| 20260503172856 | 60 | 185 | 0.0 | 0.0 | 0.00 | 0.00 | 0.00 | 81 | 1015.6 |
| 20260503172354 | 60 | 182 | 0.0 | 0.0 | 0.00 | 0.00 | 0.00 | 82 | 1015.2 |
| 20260503171850 | 60 | 182 | 0.9 | 0.9 | 0.00 | 0.00 | 0.00 | 81 | 1015.5 |
| 20260503171347 | 59 | 192 | 0.0 | 0.0 | 0.00 | 0.00 | 0.00 | 83 | 1015.4 |
| 20260503170845 | 59 | 192 | 0.0 | 0.0 | 0.00 | 0.00 | 0.00 | 84 | 1015.5 |
| 20260503170341 | 59 | 192 | 0.0 | 0.0 | 0.00 | 0.00 | 0.00 | 83 | 1015.6 |
| 20260503150733 | 55 | 181 | 0.0 | 0.0 | 0.00 | 0.00 | 0.00 | 91 | 1015.7 |
| 20260503150229 | 55 | 181 | 0.0 | 0.0 | 0.00 | 0.00 | 0.00 | 91 | 1015.9 |
| 20260503140153 | 53 | 181 | 0.0 | 0.0 | 0.00 | 0.00 | 0.00 | 89 | 1015.7 |
| 20260503131123 | 53 | 181 | 0.0 | 0.0 | 0.00 | 0.00 | 0.00 | 89 | 1015.2 |
| 20260503130621 | 53 | 181 | 0.0 | 0.0 | 0.00 | 0.00 | 0.00 | 89 | 1015.6 |
| 20260503130118 | 53 | 181 | 0.0 | 0.0 | 0.00 | 0.00 | 0.00 | 89 | 1015.1 |
| 20260503110505 | 54 | 181 | 0.0 | 0.0 | 0.00 | 0.00 | 0.00 | 85 | 1015.5 |
| 20260503090349 | 58 | 174 | 0.0 | 0.0 | 0.00 | 0.00 | 0.00 | 71 | 1015.3 |
| 20260503081318 | 58 | 174 | 0.0 | 0.0 | 0.00 | 0.00 | 0.00 | 76 | 1015.5 |
| 20260503080814 | 58 | 174 | 0.0 | 0.0 | 0.00 | 0.00 | 0.00 | 74 | 1015.6 |
| 20260503080312 | 58 | 174 | 0.0 | 0.0 | 0.00 | 0.00 | 0.00 | 76 | 1015.5 |
| 20260503072748 | 58 | 175 | 0.0 | 0.0 | 0.00 | 0.00 | 0.00 | 75 | 1015.3 |
| 20260503072245 | 58 | 175 | 0.0 | 0.0 | 0.00 | 0.00 | 0.00 | 74 | 1015.3 |
| 20260503071741 | 58 | 175 | 0.0 | 0.0 | 0.00 | 0.00 | 0.00 | 74 | 1015.3 |
| 20260503071238 | 58 | 175 | 0.0 | 0.0 | 0.00 | 0.00 | 0.00 | 75 | 1015.2 |
| 20260503070734 | 58 | 175 | 0.0 | 0.0 | 0.00 | 0.00 | 0.00 | 74 | 1015.4 |
| 20260503070232 | 58 | 175 | 0.0 | 0.0 | 0.00 | 0.00 | 0.00 | 74 | 1015.2 |
| 20260503060151 | 59 | 175 | 0.0 | 0.0 | 0.00 | 0.00 | 0.00 | 74 | 1015.3 |
| 20260503054638 | 59 | 175 | 0.0 | 0.0 | 0.00 | 0.00 | 0.00 | 75 | 1015.6 |
| 20260503054136 | 59 | 175 | 0.0 | 0.0 | 0.00 | 0.00 | 0.00 | 76 | 1015.2 |
| 20260503053633 | 59 | 175 | 0.0 | 0.0 | 0.00 | 0.00 | 0.00 | 75 | 1015.3 |
| 20260503053132 | 59 | 175 | 0.0 | 0.0 | 0.00 | 0.00 | 0.00 | 75 | 1015.3 |
| 20260503052628 | 59 | 175 | 0.0 | 0.0 | 0.00 | 0.00 | 0.00 | 76 | 1015.2 |
| 20260503052124 | 59 | 175 | 0.0 | 0.0 | 0.00 | 0.00 | 0.00 | 75 | 1015.4 |
| 20260503051620 | 59 | 176 | 0.0 | 0.0 | 0.00 | 0.00 | 0.00 | 75 | 1015.2 |
| 20260503051118 | 59 | 176 | 0.0 | 0.0 | 0.00 | 0.00 | 0.00 | 77 | 1015.3 |
| 20260503050614 | 59 | 176 | 0.0 | 0.0 | 0.00 | 0.00 | 0.00 | 76 | 1015.2 |
| 20260503050111 | 59 | 176 | 0.0 | 0.0 | 0.00 | 0.00 | 0.00 | 76 | 1015.1 |
| 20260503045608 | 59 | 176 | 0.0 | 0.0 | 0.00 | 0.00 | 0.00 | 75 | 1015.2 |
| 20260503045105 | 59 | 176 | 0.0 | 0.0 | 0.00 | 0.00 | 0.00 | 76 | 1015.2 |
| 20260503044602 | 60 | 176 | 0.0 | 0.0 | 0.00 | 0.00 | 0.00 | 76 | 1015.1 |
| 20260503044100 | 60 | 176 | 0.0 | 0.0 | 0.00 | 0.00 | 0.00 | 76 | 1015.1 |
| 20260503043555 | 60 | 176 | 0.0 | 0.0 | 0.00 | 0.00 | 0.00 | 75 | 1015.1 |
| 20260503043052 | 60 | 176 | 0.0 | 0.0 | 0.00 | 0.00 | 0.00 | 77 | 1015.0 |
| 20260503042549 | 60 | 176 | 0.0 | 0.0 | 0.00 | 0.00 | 0.00 | 78 | 1014.9 |
| 20260503042045 | 60 | 176 | 0.0 | 0.0 | 0.00 | 0.00 | 0.00 | 77 | 1014.8 |
| 20260503041543 | 60 | 176 | 0.0 | 0.0 | 0.00 | 0.00 | 0.00 | 78 | 1015.2 |
| 20260503041040 | 60 | 176 | 0.0 | 0.0 | 0.00 | 0.00 | 0.00 | 77 | 1014.7 |
| 20260503040537 | 60 | 176 | 0.0 | 0.0 | 0.00 | 0.00 | 0.00 | 77 | 1014.7 |
| 20260503040034 | 60 | 176 | 0.0 | 0.0 | 0.00 | 0.00 | 0.00 | 77 | 1014.9 |
| 20260503035532 | 61 | 176 | 0.0 | 0.0 | 0.00 | 0.00 | 0.00 | 77 | 1014.5 |
| 20260503035029 | 61 | 176 | 0.0 | 0.0 | 0.00 | 0.00 | 0.00 | 76 | 1014.6 |
| 20260503034526 | 62 | 176 | 0.0 | 0.0 | 0.00 | 0.00 | 0.00 | 75 | 1014.6 |
| 20260503034023 | 62 | 176 | 0.0 | 0.0 | 0.00 | 0.00 | 0.00 | 75 | 1014.5 |
| 20260503033520 | 62 | 176 | 0.0 | 0.0 | 0.00 | 0.00 | 0.00 | 76 | 1014.7 |
| 20260503033018 | 62 | 176 | 0.0 | 0.0 | 0.00 | 0.00 | 0.00 | 77 | 1014.7 |
| 20260503032516 | 63 | 176 | 0.0 | 0.0 | 0.00 | 0.00 | 0.00 | 76 | 1014.5 |
| 20260503032014 | 63 | 176 | 0.0 | 0.0 | 0.00 | 0.00 | 0.00 | 73 | 1014.4 |
| 20260503031512 | 64 | 176 | 0.0 | 0.0 | 0.00 | 0.00 | 0.00 | 72 | 1014.2 |
| 20260503031008 | 65 | 176 | 0.0 | 0.0 | 0.00 | 0.00 | 0.00 | 72 | 1014.1 |
| 20260503030504 | 65 | 176 | 0.0 | 0.0 | 0.00 | 0.00 | 0.00 | 69 | 1014.2 |
| 20260503030002 | 66 | 176 | 0.0 | 0.0 | 0.00 | 0.00 | 0.00 | 66 | 1014.2 |
| 20260503025458 | 67 | 176 | 0.0 | 0.0 | 0.00 | 0.00 | 0.00 | 63 | 1014.0 |
| 20260503024956 | 67 | 176 | 0.0 | 0.0 | 0.00 | 0.00 | 0.00 | 63 | 1014.1 |
| 20260503024452 | 68 | 177 | 0.9 | 0.9 | 0.00 | 0.00 | 0.00 | 61 | 1014.4 |
| 20260503023949 | 68 | 161 | 0.0 | 0.0 | 0.00 | 0.00 | 0.00 | 62 | 1014.0 |
| 20260503023446 | 68 | 161 | 0.0 | 0.0 | 0.00 | 0.00 | 0.00 | 60 | 1014.3 |
| 20260503022942 | 67 | 140 | 0.0 | 0.0 | 0.00 | 0.00 | 0.00 | 61 | 1013.9 |
| 20260503022432 | 67 | 140 | 0.0 | 0.0 | 0.00 | 0.00 | 0.00 | 62 | 1014.1 |
| 20260503021928 | 67 | 140 | 0.0 | 0.0 | 0.00 | 0.00 | 0.00 | 62 | 1014.1 |
| 20260503021425 | 67 | 140 | 0.0 | 0.0 | 0.00 | 0.00 | 0.00 | 64 | 1014.2 |
| 20260503020922 | 67 | 140 | 0.0 | 0.0 | 0.00 | 0.00 | 0.00 | 64 | 1014.2 |
| 20260503020420 | 67 | 140 | 0.0 | 0.0 | 0.00 | 0.00 | 0.00 | 65 | 1014.0 |
| 20260503015916 | 67 | 140 | 0.0 | 0.0 | 0.00 | 0.00 | 0.00 | 64 | 1014.0 |
| 20260503015413 | 68 | 140 | 0.0 | 0.0 | 0.00 | 0.00 | 0.00 | 62 | 1014.3 |
| 20260503014908 | 69 | 187 | 1.7 | 2.6 | 0.00 | 0.00 | 0.00 | 61 | 1014.3 |
| 20260503014406 | 68 | 127 | 0.0 | 0.0 | 0.00 | 0.00 | 0.00 | 61 | 1014.2 |
| 20260503013904 | 68 | 161 | 0.9 | 1.7 | 0.00 | 0.00 | 0.00 | 61 | 1014.3 |
| 20260503013401 | 69 | 129 | 0.0 | 0.0 | 0.00 | 0.00 | 0.00 | 61 | 1014.3 |
| 20260503012858 | 71 | 199 | 1.7 | 1.7 | 0.00 | 0.00 | 0.00 | 58 | 1014.4 |
| 20260503012356 | 71 | 110 | 0.0 | 0.9 | 0.00 | 0.00 | 0.00 | 57 | 1014.3 |
| 20260503011852 | 71 | 110 | 0.0 | 0.0 | 0.00 | 0.00 | 0.00 | 59 | 1014.5 |
| 20260503011349 | 72 | 111 | 0.0 | 0.0 | 0.00 | 0.00 | 0.00 | 58 | 1014.3 |
| 20260503010845 | 71 | 111 | 0.0 | 0.0 | 0.00 | 0.00 | 0.00 | 62 | 1014.1 |
| 20260503010343 | 70 | 111 | 0.0 | 0.0 | 0.00 | 0.00 | 0.00 | 61 | 1014.3 |
| 20260503005839 | 70 | 110 | 0.0 | 0.0 | 0.00 | 0.00 | 0.00 | 65 | 1014.2 |
| 20260503005337 | 68 | 111 | 0.0 | 0.9 | 0.00 | 0.00 | 0.00 | 64 | 1014.3 |
| 20260503004833 | 67 | 110 | 0.9 | 0.9 | 0.00 | 0.00 | 0.00 | 66 | 1014.4 |
| 20260503004331 | 67 | 111 | 0.0 | 0.0 | 0.00 | 0.00 | 0.00 | 66 | 1014.4 |
| 20260503003828 | 67 | 110 | 0.9 | 0.9 | 0.00 | 0.00 | 0.00 | 66 | 1014.6 |
| 20260503003325 | 66 | 110 | 0.0 | 0.9 | 0.00 | 0.00 | 0.00 | 68 | 1014.5 |
| 20260503002822 | 66 | 111 | 0.9 | 0.9 | 0.00 | 0.00 | 0.00 | 68 | 1014.4 |
| 20260503002319 | 68 | 111 | 0.9 | 0.9 | 0.00 | 0.00 | 0.00 | 67 | 1014.4 |
| 20260503001815 | 69 | 182 | 1.7 | 2.6 | 0.00 | 0.00 | 0.00 | 65 | 1014.6 |
| 20260503001311 | 70 | 236 | 3.5 | 4.3 | 0.00 | 0.00 | 0.00 | 64 | 1014.7 |
| 20260503000809 | 69 | 157 | 0.0 | 0.9 | 0.00 | 0.00 | 0.00 | 63 | 1014.8 |
| 20260503000307 | 70 | 123 | 0.0 | 0.0 | 0.00 | 0.00 | 0.00 | 63 | 1014.5 |
| 20260502235803 | 70 | 225 | 2.6 | 2.6 | 0.00 | 0.00 | 0.00 | 62 | 1014.7 |
| 20260502235301 | 69 | 228 | 1.7 | 2.6 | 0.00 | 0.00 | 0.00 | 65 | 1014.9 |
| 20260502234757 | 68 | 203 | 1.7 | 1.7 | 0.00 | 0.00 | 0.00 | 67 | 1014.8 |
| 20260502234254 | 68 | 219 | 1.7 | 1.7 | 0.00 | 0.00 | 0.00 | 69 | 1015.1 |
| 20260502233750 | 70 | 212 | 1.7 | 1.7 | 0.00 | 0.00 | 0.00 | 67 | 1014.8 |
| 20260502233247 | 69 | 218 | 2.6 | 2.6 | 0.00 | 0.00 | 0.00 | 64 | 1015.2 |
| 20260502232743 | 69 | 196 | 1.7 | 1.7 | 0.00 | 0.00 | 0.00 | 67 | 1015.0 |
| 20260502232240 | 69 | 192 | 1.7 | 1.7 | 0.00 | 0.00 | 0.00 | 68 | 1015.3 |
| 20260502231737 | 68 | 206 | 1.7 | 1.7 | 0.00 | 0.00 | 0.00 | 69 | 1015.3 |
| 20260502231235 | 68 | 232 | 2.6 | 2.6 | 0.00 | 0.00 | 0.00 | 68 | 1015.3 |
| 20260502230733 | 67 | 225 | 2.6 | 2.6 | 0.00 | 0.00 | 0.00 | 68 | 1015.3 |
| 20260502230231 | 66 | 219 | 2.6 | 4.3 | 0.00 | 0.00 | 0.00 | 70 | 1015.3 |
| 20260502225727 | 68 | 214 | 1.7 | 1.7 | 0.00 | 0.00 | 0.00 | 71 | 1015.5 |